• In Netherlands
  • List of Countries
  • For 7 days
  • Water Temperature
  • Satellite Maps
  • Weather Map
  • Weather Widgets
  • user-avatar
    Login

    Hourly Weather Dangriga

    Today, 24 February, Friday

    Time Temperature Precipitation Wind Pressure Humidity
    00:00 +18°C° 0 mm 2 mps 757 mmHg 77%
    01:00 +18°C° 0 mm 2 mps 756 mmHg 77%
    02:00 +18°C° 0 mm 2 mps 756 mmHg 77%
    03:00 +18°C° 0 mm 2 mps 756 mmHg 77%
    04:00 +18°C° 0 mm 2 mps 756 mmHg 78%
    05:00 +18°C° 0 mm 2 mps 756 mmHg 79%
    06:00 +18°C° 0 mm 2 mps 756 mmHg 80%
    07:00 +21°C° 0 mm 2 mps 757 mmHg 69%
    08:00 +26°C° 0 mm 1 mps 757 mmHg 59%
    09:00 +30°C° 0 mm 1 mps 758 mmHg 48%
    10:00 +32°C° 0 mm 2 mps 757 mmHg 42%
    11:00 +34°C° 0 mm 2 mps 757 mmHg 37%
    12:00 +36°C° 0 mm 2 mps 757 mmHg 31%
    13:00 +35°C° 0 mm 3 mps 756 mmHg 32%
    14:00 +35°C° 0 mm 3 mps 755 mmHg 33%
    15:00 +35°C° 0 mm 3 mps 755 mmHg 34%
    16:00 +31°C° 0 mm 3 mps 755 mmHg 48%
    17:00 +28°C° 0 mm 3 mps 755 mmHg 61%
    18:00 +25°C° 0 mm 4 mps 755 mmHg 74%
    19:00 +23°C° 0 mm 4 mps 756 mmHg 80%
    20:00 +22°C° 0 mm 4 mps 756 mmHg 85%
    21:00 +21°C° 0 mm 4 mps 757 mmHg 91%
    22:00 +21°C° 0 mm 3 mps 757 mmHg 93%
    23:00 +21°C° 0 mm 3 mps 757 mmHg 95%

    Tomorrow, 25 February, Saturday

    Time Temperature Precipitation Wind Pressure Humidity
    00:00 +21°C° 0 mm 3 mps 757 mmHg 97%
    01:00 +22°C° 0 mm 3 mps 757 mmHg 96%
    02:00 +22°C° 0 mm 3 mps 757 mmHg 95%
    03:00 +23°C° 0 mm 2 mps 757 mmHg 95%
    04:00 +23°C° 0 mm 2 mps 757 mmHg 95%
    05:00 +21°C° 0 mm 2 mps 757 mmHg 95%
    06:00 +21°C° 0 mm 2 mps 757 mmHg 95%
    07:00 +25°C° 0 mm 2 mps 758 mmHg 84%
    08:00 +28°C° 0 mm 2 mps 759 mmHg 73%
    09:00 +31°C° 0 mm 2 mps 759 mmHg 63%
    10:00 +32°C° 0 mm 2 mps 759 mmHg 56%
    11:00 +35°C° 0 mm 2 mps 759 mmHg 49%
    12:00 +36°C° 0 mm 2 mps 759 mmHg 42%
    13:00 +36°C° 0 mm 2 mps 758 mmHg 42%
    14:00 +36°C° 0 mm 3 mps 758 mmHg 42%
    15:00 +36°C° 0 mm 3 mps 757 mmHg 42%
    16:00 +33°C° 0 mm 4 mps 757 mmHg 55%
    17:00 +30°C° 0 mm 4 mps 757 mmHg 68%
    18:00 +27°C° 0 mm 4 mps 757 mmHg 81%
    19:00 +26°C° 0 mm 4 mps 758 mmHg 86%
    20:00 +25°C° 0 mm 4 mps 759 mmHg 91%
    21:00 +23°C° 0 mm 4 mps 759 mmHg 96%
    22:00 +23°C° 0.1 mm 4 mps 760 mmHg 96%
    23:00 +23°C° 0.1 mm 4 mps 760 mmHg 96%

    Day after tomorrow, 26 February, Sunday

    Time Temperature Precipitation Wind Pressure Humidity
    00:00 +23°C° 0.1 mm 4 mps 760 mmHg 97%
    01:00 +24°C° 0.2 mm 3 mps 759 mmHg 97%
    02:00 +22°C° 0.2 mm 3 mps 759 mmHg 98%
    03:00 +23°C° 0.2 mm 2 mps 759 mmHg 99%
    04:00 +23°C° 0.1 mm 2 mps 759 mmHg 98%
    05:00 +23°C° 0.1 mm 2 mps 760 mmHg 98%
    06:00 +23°C° 0.1 mm 1 mps 760 mmHg 97%
    07:00 +25°C° 0 mm 1 mps 761 mmHg 88%
    08:00 +27°C° 0 mm 2 mps 761 mmHg 79%
    09:00 +29°C° 0 mm 2 mps 762 mmHg 70%
    10:00 +30°C° 0 mm 2 mps 762 mmHg 63%
    11:00 +33°C° 0 mm 3 mps 761 mmHg 56%
    12:00 +34°C° 0 mm 3 mps 761 mmHg 48%
    13:00 +34°C° 0 mm 3 mps 760 mmHg 48%
    14:00 +33°C° 0 mm 3 mps 759 mmHg 48%
    15:00 +33°C° 0 mm 4 mps 759 mmHg 48%
    16:00 +30°C° 0 mm 4 mps 759 mmHg 59%
    17:00 +28°C° 0 mm 4 mps 759 mmHg 70%
    18:00 +26°C° 0 mm 4 mps 759 mmHg 82%
    19:00 +26°C° 0 mm 4 mps 760 mmHg 86%
    20:00 +25°C° 0 mm 4 mps 760 mmHg 90%
    21:00 +23°C° 0 mm 4 mps 761 mmHg 94%
    22:00 +23°C° 0 mm 4 mps 761 mmHg 93%
    23:00 +25°C° 0 mm 4 mps 761 mmHg 92%

    27 February, Monday

    Time Temperature Precipitation Wind Pressure Humidity
    00:00 +25°C° 0 mm 4 mps 760 mmHg 91%
    01:00 +25°C° 0.1 mm 4 mps 760 mmHg 92%
    02:00 +25°C° 0.1 mm 4 mps 760 mmHg 92%
    03:00 +25°C° 0.1 mm 4 mps 759 mmHg 92%
    04:00 +23°C° 0.1 mm 4 mps 759 mmHg 94%
    05:00 +23°C° 0.1 mm 4 mps 760 mmHg 95%
    06:00 +23°C° 0.1 mm 5 mps 760 mmHg 96%
    07:00 +25°C° 0.1 mm 5 mps 760 mmHg 89%
    08:00 +27°C° 0.1 mm 5 mps 761 mmHg 81%
    09:00 +29°C° 0.1 mm 5 mps 761 mmHg 74%
    10:00 +30°C° 0.1 mm 5 mps 761 mmHg 67%
    11:00 +32°C° 0.1 mm 5 mps 760 mmHg 61%
    12:00 +33°C° 0.1 mm 4 mps 760 mmHg 54%
    13:00 +33°C° 0 mm 4 mps 759 mmHg 54%
    14:00 +33°C° 0 mm 4 mps 759 mmHg 54%
    15:00 +33°C° 0 mm 4 mps 758 mmHg 55%
    16:00 +30°C° 0 mm 4 mps 758 mmHg 63%
    17:00 +29°C° 0 mm 4 mps 758 mmHg 72%
    18:00 +27°C° 0 mm 4 mps 759 mmHg 81%
    19:00 +26°C° 0 mm 4 mps 759 mmHg 84%
    20:00 +26°C° 0 mm 5 mps 760 mmHg 88%
    21:00 +25°C° 0 mm 5 mps 760 mmHg 91%
    22:00 +26°C° 0.1 mm 5 mps 760 mmHg 90%
    23:00 +26°C° 0.1 mm 5 mps 760 mmHg 90%

    28 February, Tuesday

    Time Temperature Precipitation Wind Pressure Humidity
    00:00 +26°C° 0.1 mm 5 mps 760 mmHg 89%
    01:00 +26°C° 0.4 mm 5 mps 759 mmHg 90%
    02:00 +26°C° 0.4 mm 5 mps 759 mmHg 90%
    03:00 +26°C° 0.4 mm 5 mps 759 mmHg 91%
    04:00 +25°C° 0.2 mm 5 mps 759 mmHg 92%
    05:00 +23°C° 0.2 mm 5 mps 759 mmHg 93%
    06:00 +23°C° 0.2 mm 5 mps 760 mmHg 94%
    07:00 +26°C° 0.2 mm 5 mps 760 mmHg 84%
    08:00 +28°C° 0.2 mm 5 mps 761 mmHg 75%
    09:00 +30°C° 0.2 mm 6 mps 761 mmHg 66%
    10:00 +32°C° 0 mm 5 mps 761 mmHg 63%
    11:00 +33°C° 0 mm 5 mps 760 mmHg 59%
    12:00 +34°C° 0 mm 5 mps 760 mmHg 55%
    13:00 +34°C° 0 mm 5 mps 759 mmHg 54%
    14:00 +34°C° 0 mm 5 mps 758 mmHg 53%
    15:00 +34°C° 0 mm 4 mps 758 mmHg 52%
    16:00 +32°C° 0 mm 5 mps 758 mmHg 61%
    17:00 +29°C° 0 mm 5 mps 758 mmHg 71%
    18:00 +28°C° 0 mm 5 mps 758 mmHg 80%
    19:00 +27°C° 0 mm 5 mps 759 mmHg 83%
    20:00 +27°C° 0 mm 5 mps 759 mmHg 86%
    21:00 +27°C° 0 mm 5 mps 760 mmHg 88%
    22:00 +27°C° 0 mm 5 mps 760 mmHg 88%
    23:00 +27°C° 0 mm 5 mps 759 mmHg 88%

    1 March, Wednesday

    Time Temperature Precipitation Wind Pressure Humidity
    00:00 +27°C° 0 mm 5 mps 759 mmHg 88%
    01:00 +27°C° 0 mm 5 mps 759 mmHg 89%
    02:00 +27°C° 0 mm 5 mps 758 mmHg 90%
    03:00 +27°C° 0 mm 5 mps 758 mmHg 91%
    04:00 +27°C° 0.1 mm 5 mps 758 mmHg 91%
    05:00 +27°C° 0.1 mm 5 mps 759 mmHg 92%
    06:00 +27°C° 0.1 mm 5 mps 759 mmHg 93%
    07:00 +28°C° 0 mm 5 mps 760 mmHg 88%
    08:00 +29°C° 0 mm 4 mps 760 mmHg 83%
    09:00 +30°C° 0 mm 4 mps 761 mmHg 79%
    10:00 +32°C° 0 mm 4 mps 760 mmHg 71%
    11:00 +33°C° 0 mm 4 mps 760 mmHg 63%
    12:00 +35°C° 0 mm 4 mps 760 mmHg 56%
    13:00 +34°C° 0.1 mm 4 mps 759 mmHg 56%
    14:00 +34°C° 0.1 mm 4 mps 759 mmHg 55%
    15:00 +34°C° 0.1 mm 5 mps 758 mmHg 55%
    16:00 +32°C° 0 mm 4 mps 758 mmHg 64%
    17:00 +30°C° 0 mm 4 mps 758 mmHg 73%
    18:00 +28°C° 0 mm 4 mps 759 mmHg 81%
    19:00 +28°C° 0 mm 4 mps 759 mmHg 85%
    20:00 +27°C° 0 mm 4 mps 759 mmHg 89%
    21:00 +27°C° 0 mm 4 mps 760 mmHg 93%
    22:00 +27°C° 0 mm 4 mps 760 mmHg 92%
    23:00 +27°C° 0 mm 5 mps 760 mmHg 92%
    Show more